Volver al catálogo

THOR DELTA 1 DEB

ActivoPO
NORAD 33515·DEBRIS·🇺🇸 United States

Lanzado Apr 1, 1971 desde Vandenberg Space Force Base

Loading…

Próximos Pases (próximas 24 horas)

TLE

EnvejeciendoSource: Space-Track

Época: Sep 9, 2026, 16:14 UTC

1 33515U 71024F   26252.67701598  .00000596  00000-0  22640-2 0  9997
2 33515  88.1404 215.7549 0037714  23.9089  98.2385 12.88952355261428

Sigue THOR DELTA 1 DEB en tiempo real con AllMySat

Download on the App Store